[[{"header":{"parameterUnit":"m.s-1","parameterCategory":1,"la1":30.2991,"la2":30.254,"lo1":-89.0895,"lo2":-89.0444,"dy":0.0017,"dx":0.0017,"nx":28,"ny":28,"refTime":"2023-08-04T21:00:00:Z","depth":0,"parameterNumber":2,"parameterNumberName":"U-component_of_WINDS"},"data":[0,0,0,0,0,0,0,0,0,0,0,0,0,0,0,0,0,0,0,0,0,0,0,0,0,0,0,0,0,0,0,0,0,0,0,0,0,0,0,0,0,0,0,0,0,0,0,0,0,0,0,0,0,0,0,0,0,0,2.7739,2.7739,0,2.7711,2.771,2.771,2.7608,2.7606,2.7603,2.7601,2.7573,2.7574,2.7576,0,0,0,0,0,0,0,0,0,0,0,0,0,2.7705,2.7706,2.7739,2.7739,2.7739,2.7711,2.771,2.771,2.7608,2.7605,2.7603,2.76,2.7572,2.7574,2.7576,0,0,0,0,0,0,0,0,0,0,0,0,0,2.7702,2.7706,2.7739,2.7684,2.7679,2.7711,2.771,2.771,2.7609,2.7605,2.7602,2.7599,2.7572,2.7574,2.7576,2.7659,0,0,2.7582,2.7583,0,0,0,0,0,0,0,0,2.7703,2.7704,2.7693,2.7688,2.7682,2.7659,2.7688,2.7693,2.761,2.7636,2.7601,2.7597,2.7604,2.7604,2.7606,2.7657,2.7656,2.7583,2.7584,2.7585,2.7585,0,0,0,0,0,0,0,2.7703,2.7704,2.7728,2.7693,2.7687,2.7661,2.7657,2.7688,2.764,2.7633,2.7626,2.7624,2.7601,2.7604,2.7605,2.7656,2.7583,2.7584,2.7586,2.7587,2.7769,2.7773,0,0,0,0,0,0,2.7711,2.7705,2.7729,2.7727,2.7684,2.7664,2.766,2.767,2.7639,2.7631,2.7627,2.7619,2.7602,2.7602,2.7603,2.7695,2.7585,2.7587,2.7588,2.7766,2.777,2.7774,0,0,0,0,0,0,2.7711,2.7714,2.773,2.7714,2.7714,2.7669,2.7681,2.7672,2.7674,2.7634,2.7625,2.7639,2.76,2.76,2.7645,2.7693,2.7588,2.759,2.7762,2.7767,2.7772,2.7882,0,0,0,0,0,0,2.771,2.7714,2.7746,2.7716,2.7715,2.7773,2.7684,2.7673,2.7678,2.7668,2.7643,2.7636,2.7597,2.7642,2.7647,2.7694,2.7591,2.7757,2.7764,2.777,2.7873,2.789,2.7904,0,0,0,0,0,2.7709,2.7779,2.7748,2.7752,2.7754,2.7776,2.7776,2.7729,2.7683,2.7713,2.7687,2.7637,2.7687,2.7647,2.7652,2.77,2.7754,2.7762,2.777,2.7867,2.7887,2.7904,0,0,0,0,0,0,2.7818,2.7774,2.7739,2.7802,2.7793,2.7758,2.7796,2.7752,2.7757,2.7747,2.7689,2.7685,2.7737,2.7723,2.768,2.7777,2.7712,2.7721,2.7784,2.7803,2.7818,2.7819,2.7593,0,0,0,0,0,2.7849,2.787,2.7831,2.789,2.7887,2.7842,2.785,2.7815,2.7804,2.78,2.7777,2.7768,2.7781,2.7791,2.7802,2.7871,2.7863,2.7906,2.7922,2.7935,2.7943,2.7976,2.7994,2.78,2.78,2.78,0,0,2.7913,2.7892,2.791,2.7911,2.79,2.7922,2.784,2.7869,2.7884,2.7804,2.7843,2.7827,2.7813,2.7869,2.7893,2.7859,2.7995,2.7945,2.7956,2.7957,2.7986,2.8004,2.8021,2.7806,2.7805,2.7804,0,0,2.8042,2.8029,2.8075,2.8065,2.8049,2.8018,2.8029,2.8001,2.7986,2.8024,2.7964,2.7982,2.8007,2.7998,2.7998,2.812,2.8073,2.8125,2.8205,2.8238,2.8253,2.8266,2.8307,2.8323,2.8134,2.8134,2.8134,0,2.8124,2.8156,2.8104,2.8135,2.8136,2.8064,2.8108,2.8102,2.809,2.8093,2.8055,2.8083,2.8069,2.812,2.815,2.8153,2.8162,2.8127,2.8255,2.8268,2.8279,2.8318,2.8334,2.8141,2.814,2.8139,2.8139,0,2.8257,2.8279,2.8318,2.8307,2.8313,2.8351,2.8304,2.8316,2.828,2.8253,2.8292,2.8272,2.8275,2.8285,2.8251,2.8332,2.8311,2.8265,2.8198,2.8305,2.834,2.8355,2.8149,2.8147,2.8145,2.8144,0,0,2.8454,2.8411,2.8426,2.8419,2.8395,2.8411,2.8445,2.8447,2.8458,2.8452,2.8478,2.8499,2.8456,2.8455,2.8418,2.8447,2.8542,2.8397,2.8396,2.8423,2.8627,2.866,2.8678,2.8511,2.8514,2.8516,2.8627,0,2.8574,2.8629,2.8582,2.8645,2.8664,2.8594,2.8623,2.8611,2.8586,2.8598,2.8571,2.8586,2.8529,2.8527,2.8553,2.8525,2.8582,2.8517,2.8533,2.8534,2.8537,2.8697,2.8733,2.8839,2.8641,2.8643,2.8645,0,2.8722,2.8721,2.8786,2.8754,2.876,2.8787,2.8784,2.8797,2.8781,2.876,2.8758,2.8713,2.8743,2.8678,2.8717,2.8674,2.8678,2.8665,2.8668,2.8667,2.8595,2.8698,2.8872,2.8887,2.8667,2.8665,2.8663,0,2.8856,2.8871,2.8911,2.8907,2.8872,2.8892,2.8878,2.8859,2.8862,2.8859,2.8861,2.8862,2.8863,2.8865,2.882,2.8778,2.8864,2.8797,2.8847,2.8848,2.8868,2.8867,2.9043,2.8874,2.8874,2.8873,2.8873,0,2.8995,2.9037,2.897,2.8995,2.9039,2.8984,2.9029,2.9008,2.899,2.9009,2.8949,2.8968,2.8909,2.8921,2.8887,2.8923,2.8924,2.8908,2.8898,2.8912,2.8914,2.8913,2.8904,2.8877,2.8876,2.8876,2.8875,0,2.9152,2.9109,2.9147,2.911,2.9101,2.9135,2.9103,2.9123,2.9094,2.9118,2.912,2.9074,2.9085,2.9041,2.9046,2.9022,2.9075,2.9054,2.9081,2.9073,2.9125,2.912,2.9305,2.9326,2.9146,2.9148,2.9149,0,2.9242,2.9272,2.9237,2.9244,2.9233,2.9247,2.9249,2.9195,2.92,2.9183,2.9205,2.921,2.9212,2.9232,2.9199,2.9201,2.9178,2.9243,2.9178,2.9191,2.9177,2.9175,2.9176,2.9256,2.9259,2.926,2.9262,0,2.9406,2.9382,2.9388,2.9385,2.9389,2.9385,2.9377,2.9387,2.9328,2.9337,2.9346,2.9348,2.935,2.9356,2.935,2.9336,2.9289,2.9282,2.9294,2.9308,2.9321,2.9312,2.9115,2.9278,2.9277,2.9275,2.9275,2.9274,2.953,2.9552,2.953,2.9538,2.9525,2.9518,2.9534,2.9506,2.9513,2.951,2.9478,2.9493,2.9474,2.9462,2.9451,2.9462,2.9431,2.9449,2.9453,2.9457,2.9465,2.9321,2.9461,2.9461,2.946,2.946,2.9459,0,2.9689,2.967,2.9677,2.9666,2.9672,2.9626,2.9614,2.9621,2.9635,2.9621,2.9623,2.9632,2.9637,2.9603,2.9603,2.9618,2.9596,2.962,2.9617,2.9614,2.9494,2.9483,2.9637,2.9637,2.9637,2.9637,2.9637,2.9637,2.9772,2.9806,2.9779,2.9806,2.9787,2.9801,2.9797,2.979,2.9778,2.9791,2.9794,2.9771,2.9749,2.9746,2.9748,2.9737,2.9739,2.977,2.9752,2.964,2.9623,2.9606,2.9596,2.9771,2.9771,2.9871,2.9872,2.9873]},{"header":{"parameterUnit":"m.s-1","parameterCategory":1,"la1":30.2991,"la2":30.254,"lo1":-89.0895,"lo2":-89.0444,"dy":0.0017,"dx":0.0017,"nx":28,"ny":28,"refTime":"2023-08-04T21:00:00:Z","depth":0,"parameterNumber":3,"parameterNumberName":"V-component_of_WINDS"},"data":[0,0,0,0,0,0,0,0,0,0,0,0,0,0,0,0,0,0,0,0,0,0,0,0,0,0,0,0,0,0,0,0,0,0,0,0,0,0,0,0,0,0,0,0,0,0,0,0,0,0,0,0,0,0,0,0,0,0,6.1085,6.1086,0,6.1126,6.1126,6.1127,6.106,6.1057,6.1055,6.1053,6.109,6.1093,6.1096,0,0,0,0,0,0,0,0,0,0,0,0,0,6.0944,6.0947,6.1085,6.1086,6.1086,6.1126,6.1126,6.1127,6.106,6.1057,6.1055,6.1052,6.1089,6.1092,6.1096,0,0,0,0,0,0,0,0,0,0,0,0,0,6.0997,6.0948,6.1085,6.1058,6.1056,6.1125,6.1126,6.1127,6.1061,6.1057,6.1054,6.1051,6.1087,6.1092,6.1096,6.1193,0,0,6.1111,6.1113,0,0,0,0,0,0,0,0,6.0994,6.1002,6.1061,6.106,6.1058,6.1084,6.109,6.1149,6.1062,6.1059,6.1053,6.1049,6.109,6.1094,6.1109,6.1195,6.1196,6.1111,6.1114,6.1116,6.1117,0,0,0,0,0,0,0,6.0991,6.1,6.1101,6.1062,6.106,6.1042,6.1045,6.1101,6.1093,6.1059,6.1054,6.106,6.1089,6.1105,6.111,6.1197,6.1111,6.1115,6.1118,6.112,6.1362,6.1365,0,0,0,0,0,0,6.0991,6.0998,6.11,6.1102,6.1017,6.1047,6.1051,6.1079,6.1092,6.1091,6.1063,6.1057,6.1099,6.1104,6.1111,6.1223,6.1116,6.112,6.1123,6.1358,6.1362,6.1366,0,0,0,0,0,0,6.0988,6.1001,6.1098,6.1049,6.106,6.1053,6.1085,6.1082,6.1098,6.1095,6.1093,6.1081,6.1096,6.1104,6.1173,6.1223,6.1122,6.1126,6.1354,6.1359,6.1364,6.145,0,0,0,0,0,0,6.0984,6.1,6.1038,6.105,6.1063,6.1162,6.1088,6.1085,6.1107,6.1099,6.1112,6.1111,6.1094,6.1166,6.1178,6.1228,6.113,6.1349,6.1356,6.1363,6.1442,6.1458,6.1471,0,0,0,0,0,6.098,6.106,6.1041,6.1053,6.111,6.1165,6.1171,6.1152,6.1111,6.1148,6.1146,6.1111,6.1217,6.1174,6.1186,6.1239,6.1346,6.1354,6.1362,6.1436,6.1455,6.147,0,0,0,0,0,0,6.1052,6.1061,6.104,6.1127,6.1146,6.1153,6.1199,6.1173,6.1202,6.1194,6.1167,6.117,6.1244,6.1248,6.1201,6.1332,6.1274,6.1285,6.1326,6.1344,6.1358,6.1354,6.1134,0,0,0,0,0,6.1079,6.1124,6.1129,6.1205,6.1216,6.1206,6.1229,6.1213,6.1231,6.1238,6.1241,6.1258,6.1295,6.132,6.1354,6.1443,6.1444,6.1485,6.1499,6.1511,6.152,6.1566,6.1583,6.1393,6.1393,6.1393,0,0,6.1134,6.1144,6.1174,6.122,6.1232,6.1278,6.1213,6.1264,6.1297,6.1245,6.131,6.1313,6.133,6.141,6.1445,6.1415,6.1573,6.1521,6.1531,6.1533,6.1576,6.1594,6.161,6.1399,6.1398,6.1397,0,0,6.1256,6.1269,6.1333,6.1348,6.1369,6.1362,6.1377,6.1389,6.139,6.1455,6.1416,6.1454,6.1519,6.1533,6.1548,6.1675,6.1643,6.1687,6.1759,6.1804,6.1819,6.1832,6.1876,6.1892,6.1697,6.1697,6.1697,0,6.132,6.1389,6.1369,6.1423,6.1443,6.14,6.1463,6.1478,6.1508,6.1522,6.149,6.157,6.1578,6.1659,6.169,6.1705,6.172,6.1684,6.1819,6.1832,6.1844,6.1885,6.1901,6.1702,6.1701,6.1701,6.17,0,6.1466,6.1514,6.1563,6.1595,6.1621,6.1679,6.1666,6.1695,6.1676,6.1672,6.1738,6.1748,6.1782,6.18,6.1782,6.1878,6.1859,6.1824,6.1765,6.1868,6.1905,6.1921,6.1709,6.1707,6.1706,6.1705,0,0,6.1634,6.1655,6.1673,6.1686,6.1706,6.1741,6.1797,6.1832,6.1856,6.1879,6.1923,6.1979,6.1946,6.1963,6.1946,6.1986,6.2084,6.1945,6.1945,6.1969,6.2188,6.2213,6.2232,6.2063,6.2066,6.2069,6.2186,0,6.1754,6.1852,6.1835,6.1929,6.1972,6.1931,6.1979,6.1996,6.1994,6.2028,6.2025,6.2064,6.2019,6.2029,6.2067,6.2064,6.2127,6.2056,6.2102,6.2104,6.2097,6.2252,6.2279,6.2389,6.2201,6.2203,6.2205,0,6.1907,6.1936,6.2035,6.2047,6.2064,6.2108,6.2138,6.2172,6.2189,6.2185,6.2205,6.218,6.2233,6.2176,6.2247,6.2199,6.2217,6.2219,6.2222,6.2224,6.2159,6.2256,6.2424,6.244,6.2229,6.2227,6.2225,0,6.2017,6.2081,6.2148,6.2161,6.2177,6.2208,6.2216,6.223,6.2252,6.2278,6.2291,6.2323,6.234,6.2364,6.2348,6.2308,6.2422,6.2363,6.2417,6.2418,6.2441,6.244,6.2613,6.2457,6.2457,6.2457,6.2456,0,6.2151,6.2213,6.2197,6.2238,6.2305,6.2285,6.2351,6.2354,6.2366,6.2405,6.2372,6.2409,6.2387,6.2422,6.241,6.247,6.2478,6.2474,6.247,6.2476,6.2476,6.2486,6.2477,6.2461,6.246,6.2459,6.2458,0,6.2285,6.2277,6.2347,6.2357,6.2361,6.2409,6.2417,6.2454,6.245,6.25,6.251,6.2503,6.2542,6.2529,6.2571,6.2563,6.2638,6.2625,6.2633,6.2629,6.2684,6.2678,6.2867,6.289,6.2722,6.2723,6.2725,0,6.237,6.2416,6.2432,6.2456,6.2467,6.2507,6.2529,6.2511,6.2536,6.2558,6.2592,6.2629,6.2657,6.2721,6.2718,6.275,6.2736,6.28,6.274,6.2744,6.2734,6.2731,6.2734,6.2811,6.2813,6.2815,6.2816,0,6.2521,6.2515,6.255,6.2583,6.2611,6.2636,6.2657,6.2679,6.2662,6.2691,6.2731,6.2753,6.2796,6.2832,6.2861,6.2867,6.2838,6.2835,6.2849,6.2855,6.2857,6.2854,6.2663,6.283,6.2829,6.2828,6.2827,6.2827,6.2631,6.267,6.2687,6.2726,6.2741,6.2762,6.2797,6.2797,6.2831,6.2866,6.2853,6.2899,6.2913,6.2948,6.2959,6.2993,6.2968,6.2989,6.2993,6.2998,6.3004,6.2853,6.2998,6.2998,6.2997,6.2997,6.2997,0,6.2779,6.2788,6.2825,6.2856,6.2887,6.2859,6.2882,6.2908,6.2949,6.2966,6.2995,6.3041,6.3075,6.3076,6.3108,6.3135,6.3123,6.3144,6.314,6.3142,6.3026,6.301,6.3153,6.3153,6.3153,6.3153,6.3153,6.3153,6.2859,6.2923,6.2919,6.2988,6.2996,6.3042,6.3057,6.3075,6.3089,6.3142,6.3171,6.3172,6.3181,6.3214,6.3244,6.3243,6.3255,6.3281,6.3275,6.3166,6.315,6.3135,6.312,6.3284,6.3285,6.3388,6.3389,6.3389]}]]